Hamilton Island, Australia

6:56 PM AEST on June 26, 2017 (GMT +1000)
Hamilton Island

Weather History for YBHM - October, 2012

Change the Weather History Date:

Friday, October 26, 2012

  Actual Average Record
Temperature  
Mean Temperature 74 °F -  
Max Temperature 78 °F - - ()
Min Temperature 69 °F - - ()
Cooling Degree Days 8    
Growing Degree Days 24 (Base 50)    
Moisture  
Dew Point 56 °F    
Average Humidity 53    
Maximum Humidity 64    
Minimum Humidity 39    
Precipitation  
Precipitation 0.00 in - - ()
Sea Level Pressure  
Sea Level Pressure 29.87 in    
Wind  
Wind Speed 9 mph ()    
Max Wind Speed 15 mph    
Max Gust Speed -    
T = Trace of Precipitation, MM = Missing Value Source: Averaged Metar Reports

Daily Weather History Graph

Daily Weather History Graph

Search for Another Location

Airport or City:

Trip Planner

Search our weather history database for the weather conditions in past years. The results will help you decide how hot, cold, wet, or windy it might be!

Date:

Astronomy

Oct. 26, 2012 Rise Set
Actual Time 5:25 AM AEST 6:10 PM AEST
Civil Twilight 5:02 AM AEST 6:33 PM AEST
Nautical Twilight 4:36 AM AEST 7:00 PM AEST
Astronomical Twilight 4:09 AM AEST 7:27 PM AEST
Moon 3:12 PM AEST 2:48 AM AEST
Length of Visible Light 13h 30m
Length of Day
12h 45m
Waxing Gibbous, 87% of the Moon is Illuminated
Oct 26
Waxing Gibbous
Oct 30
Full
Nov 7
Last Quarter
Nov 14
New
Nov 21
First Quarter

Hourly Weather History & Observations

Time (AEST) Temp. Dew Point Humidity Pressure Visibility Wind Dir Wind Speed Gust Speed Precip Events Conditions
12:00 AM 71 °F 57 °F 51% 29.91 in - ESE 11.5 mph - -  
12:00 AM 71.6 °F 57.2 °F 60% 29.92 in - ESE 11.5 mph - N/A   Unknown
12:30 AM 71.6 °F 53.6 °F 53% 29.89 in - ESE 10.4 mph - N/A   Unknown
1:00 AM 71.6 °F 53.6 °F 53% 29.89 in - ESE 9.2 mph - N/A   Unknown
1:30 AM 69.8 °F 55.4 °F 60% 29.89 in - SE 9.2 mph - N/A   Unknown
2:00 AM 69.8 °F 57.2 °F 64% 29.86 in - ESE 8.1 mph - N/A   Unknown
2:30 AM 69.8 °F 55.4 °F 60% 29.86 in - SE 8.1 mph - N/A   Unknown
3:00 AM 70 °F 55 °F 49% 29.86 in - SE 9.2 mph - -  
3:00 AM 69.8 °F 55.4 °F 60% 29.86 in - SE 9.2 mph - N/A   Unknown
3:30 AM 69.8 °F 55.4 °F 60% 29.86 in - ESE 8.1 mph - N/A   Unknown
4:00 AM 69.8 °F 55.4 °F 60% 29.86 in - SE 9.2 mph - N/A   Unknown
4:30 AM 69.8 °F 55.4 °F 60% 29.89 in - SE 9.2 mph - N/A   Unknown
5:00 AM 69.8 °F 55.4 °F 60% 29.89 in - SE 8.1 mph - N/A   Unknown
5:30 AM 69.8 °F 53.6 °F 56% 29.89 in - SE 8.1 mph - N/A   Unknown
6:00 AM 71 °F 56 °F 50% 29.90 in - SE 8.1 mph - -  
6:00 AM 71.6 °F 57.2 °F 60% 29.89 in - SE 8.1 mph - N/A   Unknown
6:30 AM 73.4 °F 57.2 °F 57% 29.92 in - SE 8.1 mph - N/A   Unknown
7:00 AM 75.2 °F 57.2 °F 53% 29.92 in - ESE 9.2 mph - N/A   Unknown
7:30 AM 75.2 °F 57.2 °F 53% 29.92 in - SE 8.1 mph - N/A   Unknown
8:00 AM 75.2 °F 59.0 °F 57% 29.92 in - ESE 8.1 mph - N/A   Unknown
8:30 AM 77.0 °F 57.2 °F 50% 29.92 in - East 8.1 mph - N/A   Unknown
9:00 AM 76 °F 56 °F 40% 29.94 in - East 9.2 mph - -  
9:00 AM 75.2 °F 55.4 °F 50% 29.95 in - East 9.2 mph - N/A   Unknown
9:30 AM 77.0 °F 59.0 °F 54% 29.95 in - East 9.2 mph - N/A   Unknown
10:00 AM 77.0 °F 57.2 °F 50% 29.95 in - East 9.2 mph - N/A   Unknown
10:30 AM 77.0 °F 60.8 °F 57% 29.92 in - SE 10.4 mph - N/A   Unknown
11:00 AM 77.0 °F 59.0 °F 54% 29.92 in - SE 10.4 mph - N/A   Unknown
11:30 AM 77.0 °F 59.0 °F 54% 29.92 in - SE 11.5 mph - N/A   Unknown
12:00 PM 76 °F 58 °F 43% 29.89 in - SE 11.5 mph - -  
12:00 PM 77.0 °F 57.2 °F 50% 29.89 in - SE 11.5 mph - N/A   Unknown
12:30 PM 77.0 °F 59.0 °F 54% 29.86 in - SE 10.4 mph - N/A   Unknown
1:00 PM 77.0 °F 59.0 °F 54% 29.86 in - SE 9.2 mph - N/A   Unknown
1:30 PM 77.0 °F 57.2 °F 50% 29.83 in - ESE 10.4 mph - N/A   Unknown
2:00 PM 78.8 °F 57.2 °F 47% 29.83 in - ESE 11.5 mph - N/A   Unknown
2:30 PM 77.0 °F 53.6 °F 44% 29.83 in - ESE 11.5 mph - N/A   Unknown
3:00 PM 76 °F 56 °F 39% 29.82 in - East 13.8 mph - -  
3:00 PM 77.0 °F 55.4 °F 47% 29.83 in - East 13.8 mph - N/A   Unknown
3:30 PM 77.0 °F 57.2 °F 50% 29.80 in - East 15.0 mph - N/A   Unknown
4:00 PM 75.2 °F 55.4 °F 50% 29.80 in - East 13.8 mph - N/A   Unknown
4:30 PM 77.0 °F 53.6 °F 44% 29.80 in - East 11.5 mph - N/A   Unknown
5:00 PM 78.8 °F 57.2 °F 47% 29.80 in - WNW 11.5 mph - N/A   Unknown
5:30 PM 77.0 °F 57.2 °F 50% 29.83 in - NW 8.1 mph - N/A   Unknown
6:00 PM 75 °F 56 °F 41% 29.82 in - NW 10.4 mph - -  
6:00 PM 75.2 °F 55.4 °F 50% 29.83 in - NW 10.4 mph - N/A   Unknown
6:30 PM 73.4 °F 57.2 °F 57% 29.83 in - NNW 9.2 mph - N/A   Unknown
7:00 PM 73.4 °F 55.4 °F 53% 29.83 in - North 4.6 mph - N/A   Unknown
7:30 PM 73.4 °F 55.4 °F 53% 29.86 in - North 5.8 mph - N/A   Unknown
8:00 PM 73.4 °F 55.4 °F 53% 29.86 in - North 6.9 mph - N/A   Unknown
8:30 PM 71.6 °F 53.6 °F 53% 29.86 in - North 4.6 mph - N/A   Unknown
9:00 PM 71.6 °F 51.8 °F 50% 29.86 in - North 4.6 mph - N/A   Unknown
9:30 PM 71.6 °F 53.6 °F 53% 29.86 in - North 4.6 mph - N/A   Unknown
10:00 PM 71.6 °F 55.4 °F 57% 29.86 in - North 5.8 mph - N/A   Unknown
10:30 PM 71.6 °F 55.4 °F 57% 29.86 in - North 4.6 mph - N/A   Unknown
11:00 PM 71.6 °F 57.2 °F 60% 29.86 in - North 3.5 mph - N/A   Unknown
11:30 PM 71.6 °F 55.4 °F 57% 29.86 in - North 3.5 mph - N/A   Unknown